Theta_e
317 315 316 318 317 316 316 315 316 316 316 317 316 316 316 315 311 308 307 307 307 307 307 306 306 306 306 306 306 307 307 307 309 311 313 313 308 310 314 313 312 313 313 311 311 312 312 311 311 311 314 316 316 317 314 319 325 327 335 332 321 322 322 321 322 318 320 321 317 316 316 319 316 314 313 312 317 317 316 322 324 326 327 326 327 321 326 336
317 316 316 317 316 315 315 315 316 316 316 316 316 316 316 315 311 308 307 306 307 307 308 307 306 306 306 306 306 307 307 308 311 312 312 310 310 312 312 315 316 313 312 310 311 312 312 312 311 312 318 317 315 317 316 316 322 333 335 326 325 332 323 320 323 317 317 318 317 317 316 317 317 315 314 314 316 316 316 318 322 329 333 329 326 325 331 335
316 317 317 316 315 314 314 315 315 315 316 316 315 316 316 315 311 308 307 306 306 307 309 308 305 306 306 306 306 307 308 309 310 310 310 309 312 314 314 317 318 314 311 311 312 311 313 313 310 313 318 317 316 318 319 317 318 329 330 322 330 336 322 317 320 317 316 317 317 316 314 314 315 314 313 316 317 315 318 320 320 329 344 337 328 328 332 333
316 317 317 316 315 314 314 315 315 315 316 316 315 315 316 314 311 309 306 306 306 306 308 307 305 305 305 306 307 307 309 309 310 309 310 310 311 316 316 315 315 313 311 312 313 313 313 311 309 315 318 316 317 317 318 319 316 319 327 329 328 325 319 316 317 317 316 316 317 316 314 314 314 313 313 317 317 316 319 322 319 327 348 337 328 330 330 331
317 317 317 316 315 313 314 314 315 315 315 315 315 315 315 313 311 309 306 306 305 305 306 306 305 305 305 306 307 309 310 309 311 313 312 310 311 316 315 312 312 312 311 313 314 313 312 310 310 317 318 315 317 317 316 316 316 316 318 322 321 317 315 315 316 316 315 314 315 316 315 314 313 313 316 317 319 320 317 319 319 323 342 336 329 330 329 330
317 317 316 316 314 314 314 314 315 315 315 315 315 315 314 313 311 309 306 306 305 305 305 305 305 305 305 306 308 310 311 310 312 316 315 311 312 315 314 311 312 312 311 313 313 312 312 312 311 316 317 314 315 316 314 312 314 318 315 314 317 316 315 315 316 316 314 315 316 317 314 313 314 314 315 316 319 321 317 317 315 318 330 331 328 329 330 330
317 317 316 315 314 314 314 314 315 315 314 314 315 315 314 312 311 308 306 306 305 305 305 305 305 305 306 307 310 311 312 312 313 316 316 313 314 315 313 311 312 312 312 312 312 313 314 313 313 316 317 315 314 313 313 313 315 321 318 314 315 315 315 315 316 316 316 318 317 314 313 314 317 315 312 313 317 318 315 310 306 314 324 328 327 329 329 329
317 317 316 315 315 314 314 314 314 314 314 314 315 315 314 313 311 308 306 306 305 306 304 305 305 305 308 309 311 312 311 313 314 316 316 314 314 313 311 312 312 311 312 312 312 314 314 313 312 314 316 314 313 313 312 312 316 320 318 315 315 314 315 315 316 318 317 317 315 313 315 316 315 313 312 316 319 317 316 310 311 321 326 328 329 330 328 327
317 317 316 315 315 314 313 314 313 314 314 314 315 314 315 314 313 309 307 306 305 306 305 305 305 307 310 310 310 311 310 313 314 316 314 313 313 311 312 312 311 311 312 313 313 312 312 314 313 312 315 313 312 314 314 314 315 318 317 317 316 315 315 314 316 318 318 316 314 314 316 315 312 311 315 320 319 317 319 321 325 331 332 330 330 328 327 326
317 316 315 315 315 314 313 313 313 313 313 315 315 314 315 315 314 310 307 306 305 305 305 305 306 309 312 311 308 308 311 314 315 314 312 311 312 311 312 311 312 312 313 313 312 311 312 313 313 312 314 313 313 314 313 312 314 317 318 317 317 316 314 315 316 316 317 316 315 317 316 315 313 313 317 319 314 314 322 328 327 334 338 331 329 328 326 326
317 316 315 315 314 314 313 312 313 313 313 314 315 314 314 314 314 311 307 306 305 306 305 306 307 309 312 311 308 308 313 316 315 314 311 311 312 311 312 312 312 313 312 313 311 311 313 312 310 312 313 313 314 315 313 312 313 315 318 317 317 318 314 314 316 315 316 314 315 317 315 315 313 316 319 315 312 313 322 329 326 333 338 329 329 328 324 325
317 316 315 315 314 314 313 312 312 313 313 314 314 314 313 314 313 311 308 306 306 306 305 306 307 310 311 309 309 311 315 317 315 313 311 311 312 312 313 314 313 314 313 313 312 313 313 312 312 314 313 313 315 315 314 314 314 315 318 316 318 321 316 313 315 315 315 314 315 316 312 314 315 317 318 314 313 313 318 326 326 327 328 325 327 326 325 324
317 316 316 315 314 314 313 313 312 312 313 313 314 313 313 313 313 311 308 307 306 306 306 306 307 311 310 308 310 312 315 316 314 312 311 312 313 313 314 314 314 314 314 313 313 313 314 313 314 314 314 316 316 312 313 315 314 315 316 319 319 319 316 312 314 315 314 314 315 313 311 317 318 316 314 311 313 314 316 322 324 324 321 320 321 323 325 321
316 316 316 315 314 314 313 313 312 312 313 312 313 313 312 312 312 311 308 307 307 306 307 306 309 312 309 308 312 313 315 315 314 312 311 313 313 314 313 313 314 314 315 314 313 313 314 313 312 313 312 316 314 311 316 317 317 315 313 322 321 313 316 317 315 316 313 313 313 310 312 319 319 316 313 310 312 314 317 321 320 321 319 317 317 319 321 319
316 316 315 315 314 313 313 312 311 311 311 311 312 312 311 311 311 310 308 307 307 308 308 307 311 312 308 309 312 313 315 314 313 312 312 313 313 313 313 313 313 314 314 314 313 313 314 313 315 316 313 313 313 314 320 319 322 321 313 321 320 311 318 321 315 316 314 313 313 310 313 319 319 318 313 310 313 314 317 321 319 318 318 316 315 314 316 315
316 316 315 315 314 313 312 312 311 310 310 310 311 311 311 311 311 309 308 308 309 309 309 310 313 310 306 309 312 313 314 313 313 312 312 313 313 314 313 313 313 313 313 313 314 313 313 316 315 314 314 314 315 318 321 320 324 325 317 320 321 314 317 318 315 316 315 315 315 312 314 319 319 318 317 313 313 313 315 320 319 317 317 315 314 313 312 312
317 316 315 314 313 313 312 312 311 310 310 311 311 311 310 310 310 309 309 309 311 311 310 312 313 309 305 308 312 314 313 312 312 312 314 313 314 314 312 313 312 312 314 313 314 313 312 316 313 312 317 316 316 318 318 316 318 321 319 319 320 318 317 317 317 316 315 315 316 315 315 319 320 319 321 316 312 314 316 320 321 319 317 315 314 312 312 312
316 315 315 314 313 313 312 312 311 310 311 310 310 310 311 311 311 310 312 312 312 310 310 311 310 309 308 309 313 314 312 312 313 314 315 314 314 313 313 314 311 311 314 314 313 313 313 316 316 318 320 315 314 316 317 318 318 318 318 317 316 316 315 318 319 315 314 315 316 317 316 319 321 318 320 316 310 313 318 319 319 319 318 317 314 313 312 312
316 315 314 314 313 312 312 311 310 311 310 310 310 312 312 312 311 312 313 312 310 307 309 310 308 311 311 310 313 314 312 312 313 313 314 315 313 313 314 313 313 315 315 315 313 314 319 319 316 318 318 315 314 314 319 324 322 318 320 322 321 319 317 319 319 314 314 317 317 318 318 321 321 317 319 318 311 312 317 317 317 318 316 315 314 313 312 312
315 314 314 313 313 312 311 311 311 310 309 310 312 311 311 312 312 313 313 312 311 308 311 311 309 312 314 313 315 313 312 312 312 313 314 314 313 314 313 312 316 316 315 319 315 314 320 319 315 318 317 317 316 314 317 318 318 318 320 325 323 320 319 317 317 315 314 316 317 317 318 320 320 317 318 315 310 312 316 317 317 317 315 313 313 313 312 312
315 314 314 313 312 311 311 310 310 310 309 311 312 311 311 311 311 312 312 312 309 307 310 311 309 313 314 313 313 311 312 313 311 313 314 313 313 314 313 314 316 315 315 320 317 314 317 317 316 318 315 315 315 315 316 316 317 318 319 323 320 319 320 315 315 317 314 314 316 316 317 318 318 318 316 313 311 314 316 317 317 315 313 312 312 313 313 311
314 314 313 312 312 311 310 310 310 310 310 310 311 313 315 311 309 310 309 309 307 306 310 310 311 315 313 311 312 311 313 315 312 313 314 313 313 313 314 315 315 315 315 317 317 315 316 317 316 314 312 313 313 314 318 320 323 323 320 321 320 318 319 315 315 316 314 314 318 320 320 318 317 317 315 313 313 313 313 314 314 313 312 311 311 312 311 311
315 314 312 312 311 311 310 310 310 310 310 311 310 311 314 313 310 310 308 308 307 307 310 310 314 319 315 312 313 311 313 314 313 314 313 313 314 313 315 315 314 316 315 315 317 316 317 318 316 313 311 313 314 315 318 320 322 324 322 321 319 318 319 318 316 315 314 313 317 321 318 316 316 318 318 315 311 312 313 313 312 312 312 311 311 311 311 311
314 313 312 312 310 310 310 310 310 309 310 310 310 311 314 313 312 311 310 310 308 309 310 309 314 320 317 313 313 313 313 313 313 313 311 314 314 313 314 315 315 315 315 316 316 315 317 314 311 311 311 314 316 314 317 318 316 321 330 332 326 323 322 319 316 317 316 313 315 317 314 321 327 326 329 324 312 311 314 315 315 314 312 311 311 311 311 312
314 312 312 310 310 310 310 310 310 309 310 310 310 312 314 314 311 311 312 311 309 309 308 308 312 317 315 313 313 314 314 313 314 313 311 313 313 312 312 312 314 315 315 315 313 314 315 310 310 313 313 316 317 315 318 321 316 315 326 333 330 330 326 319 319 322 321 316 313 311 312 329 337 329 329 327 317 314 314 312 316 316 312 311 313 311 309 312
313 312 310 310 310 311 311 311 310 309 310 309 310 312 314 314 311 310 313 313 311 310 308 308 310 312 313 313 315 315 314 313 312 311 312 312 311 312 311 311 312 314 314 314 314 315 313 311 314 318 319 317 316 316 316 320 319 313 317 320 323 330 326 320 320 319 319 315 310 312 314 321 325 321 322 322 318 317 315 314 318 317 310 310 313 314 315 316
312 311 310 310 311 311 310 311 309 309 312 311 311 313 313 313 311 309 313 314 312 310 308 308 308 310 312 313 313 314 314 315 311 310 312 311 310 310 312 312 311 313 313 315 317 315 313 315 317 320 325 321 317 317 314 317 319 313 315 320 326 329 325 325 325 321 321 315 315 323 321 314 317 317 318 319 319 321 319 319 321 317 313 312 312 315 321 324
312 310 310 310 310 310 310 310 309 309 311 311 312 314 313 312 309 310 314 312 311 310 308 307 307 310 312 310 312 313 313 315 314 312 311 310 310 311 314 315 313 315 313 314 318 315 314 319 318 321 327 321 319 318 316 322 324 316 316 322 326 327 329 333 334 329 321 312 319 328 316 312 322 323 321 318 315 318 320 319 319 318 318 317 315 315 317 321
311 310 310 310 309 310 310 310 309 309 310 310 312 313 312 310 308 310 313 309 309 310 308 307 308 311 312 310 311 314 313 314 315 313 310 310 310 310 313 314 314 317 313 315 322 317 314 315 315 320 322 319 319 317 317 327 326 317 315 319 321 324 329 331 330 326 315 312 325 327 313 311 319 325 326 316 313 319 322 319 320 320 318 316 317 319 317 320
311 310 309 309 309 311 311 310 309 310 311 312 313 311 310 311 310 309 309 308 311 311 307 307 309 312 313 312 311 313 315 315 314 313 313 313 312 311 311 310 314 321 320 322 326 319 314 312 312 316 316 317 319 316 317 321 317 314 319 322 320 324 330 331 331 323 311 319 330 322 315 312 311 323 330 317 314 321 320 322 323 320 318 316 321 330 330 331
311 310 308 309 311 311 311 310 310 311 312 313 312 309 309 314 315 310 308 311 314 312 308 308 309 312 313 312 313 313 315 316 313 313 314 313 313 314 312 310 315 321 322 324 323 318 316 315 315 316 314 315 320 319 316 314 314 318 325 324 318 322 326 328 331 320 312 326 327 316 315 313 311 322 327 321 320 317 314 320 323 319 320 320 326 336 334 331
310 309 309 311 311 311 311 311 311 312 313 312 312 311 311 313 312 310 309 310 313 312 310 310 310 312 313 312 314 315 316 317 313 313 316 316 314 314 314 315 318 318 316 320 321 318 318 318 316 315 314 315 321 324 317 316 321 321 320 321 318 320 319 323 331 322 318 324 317 314 317 313 314 318 317 319 321 317 313 316 319 317 319 323 328 338 336 330
310 309 310 311 311 311 312 312 312 312 312 311 311 313 316 314 310 311 311 310 311 312 312 312 311 312 312 312 314 315 316 315 313 313 316 317 315 313 315 317 319 320 318 320 322 319 320 323 317 314 315 314 317 321 318 318 321 317 316 320 320 320 316 320 326 317 317 321 314 312 316 315 318 315 313 316 313 313 314 314 318 318 317 321 323 330 335 331
310 310 310 311 310 311 313 313 312 312 311 310 310 312 315 313 310 311 311 310 313 313 313 314 312 311 312 313 314 314 314 313 312 313 314 315 315 314 315 313 314 322 323 319 320 320 321 323 320 317 317 315 314 318 323 324 320 315 316 316 317 325 324 321 323 320 321 323 316 311 315 323 322 311 313 316 312 314 314 312 314 315 315 317 317 321 329 333
312 311 311 311 311 311 312 313 313 312 310 309 309 310 311 310 312 313 310 312 317 316 313 312 311 311 312 313 312 312 315 315 313 313 314 315 314 314 315 311 312 321 322 316 317 318 317 318 320 318 314 315 316 316 320 323 319 316 313 311 313 322 326 319 315 320 320 319 318 315 318 327 320 312 315 314 312 315 316 314 315 318 321 321 324 325 326 335
313 312 312 312 311 311 312 314 313 311 310 309 309 311 310 309 315 316 311 314 318 313 311 312 312 313 312 312 313 312 314 317 315 314 314 314 313 314 314 312 313 315 316 317 318 317 316 315 316 316 313 314 315 314 316 318 318 315 312 317 319 316 325 321 310 312 313 311 317 317 319 323 315 314 318 314 313 317 318 319 318 322 325 325 328 327 326 338
314 313 314 312 311 311 312 313 312 311 311 309 309 312 310 307 313 317 314 315 315 311 312 313 312 313 312 312 314 313 313 317 315 314 315 313 313 314 314 313 313 312 313 317 318 318 321 319 315 316 315 312 311 313 316 315 316 318 318 321 317 311 319 322 313 318 318 315 319 317 315 319 314 316 320 314 312 315 317 318 318 320 322 324 326 322 323 333
314 314 314 313 313 312 313 312 311 312 313 310 310 314 314 308 310 319 319 313 311 312 314 315 313 313 313 312 314 312 313 316 314 314 315 313 314 315 313 313 313 312 312 313 313 315 321 321 315 313 316 315 313 315 317 313 311 318 321 318 316 316 320 317 314 320 319 315 322 321 314 313 313 317 321 314 313 319 320 318 316 317 320 325 326 317 314 318
312 313 315 314 314 313 314 313 311 314 314 310 309 313 314 311 312 320 320 313 313 315 315 317 316 313 312 312 313 312 313 314 314 315 315 313 314 314 312 313 313 312 311 311 312 313 316 319 315 312 313 315 316 316 318 318 312 312 313 311 315 322 322 318 315 317 316 314 319 322 320 317 315 317 317 313 316 323 324 321 319 319 322 324 322 319 319 318
310 314 314 312 313 315 314 313 313 314 312 310 310 311 311 312 315 319 317 314 315 314 313 318 317 313 314 313 311 312 313 314 313 314 314 312 312 312 310 311 313 312 310 310 314 314 313 313 313 313 312 314 318 318 318 319 315 314 315 313 316 317 316 318 317 315 319 320 319 320 319 322 323 318 317 316 317 321 324 321 321 323 325 323 320 324 327 321
311 314 314 312 313 314 313 315 315 313 312 311 312 315 314 314 318 320 317 316 317 315 316 320 317 315 317 314 311 312 314 314 313 313 314 311 311 312 311 311 313 313 311 309 313 316 313 311 316 318 316 317 319 318 316 317 316 315 315 315 316 316 316 317 315 314 316 317 320 319 313 320 327 318 315 318 316 317 318 315 318 325 326 327 326 326 322 318
312 313 312 312 313 312 314 316 312 310 313 312 312 314 314 314 318 318 317 317 318 319 320 320 318 316 316 313 312 314 314 315 314 313 314 312 311 313 312 311 312 311 311 311 311 316 317 318 322 323 320 319 317 313 313 315 315 314 314 317 317 315 316 318 319 318 315 311 315 318 316 320 318 310 314 319 314 314 316 314 320 326 329 329 326 323 321 322
312 312 312 312 312 312 313 314 310 310 313 310 310 311 310 314 317 316 317 318 318 319 320 320 318 314 314 315 313 314 314 313 313 313 315 313 311 315 316 313 312 311 311 312 311 313 316 319 319 319 321 322 318 315 314 312 313 314 316 318 317 316 319 326 327 322 319 316 315 316 318 316 312 312 321 325 320 318 318 318 322 326 330 329 324 324 328 328
311 312 312 311 311 310 312 313 312 311 310 308 311 312 310 312 315 316 321 321 318 321 322 322 319 315 318 319 314 313 313 313 314 313 314 315 312 315 317 314 312 312 311 312 312 312 313 316 317 317 320 321 320 320 318 315 314 317 319 318 317 319 320 321 319 314 316 321 319 317 318 314 315 320 321 320 322 321 319 320 321 322 326 329 329 328 326 324
311 310 310 309 309 309 310 312 312 310 309 309 313 314 312 313 313 314 319 320 317 318 321 321 318 317 321 319 312 313 314 314 317 314 313 316 315 315 316 315 313 312 311 313 312 311 314 317 317 315 315 316 316 318 318 318 316 316 320 319 316 318 318 315 318 317 316 319 318 316 316 312 315 319 315 316 322 320 318 321 319 319 325 330 331 328 324 323
311 311 309 309 309 309 309 310 310 309 309 311 312 313 313 314 312 310 313 315 314 315 317 317 316 319 321 317 313 315 314 313 317 316 313 316 319 316 314 315 314 312 314 317 313 315 320 319 314 312 313 312 312 316 319 321 319 316 319 319 316 316 316 316 321 319 317 318 316 314 314 313 315 316 316 322 326 321 318 320 322 324 326 326 323 320 320 323
310 311 310 309 309 309 308 308 308 308 309 312 312 312 312 313 314 313 311 311 313 314 315 315 316 319 322 318 315 316 315 313 315 316 315 314 316 317 313 313 313 312 316 317 313 317 323 318 313 313 314 311 312 319 322 320 319 318 317 317 317 316 316 317 318 316 317 319 316 313 314 313 313 314 316 320 322 321 319 319 321 321 319 318 316 316 319 323
308 309 308 308 309 309 309 308 307 306 308 310 311 311 311 312 314 315 313 311 312 313 314 315 317 319 322 321 318 317 316 314 314 316 317 315 316 318 315 313 313 314 317 314 311 317 319 315 314 314 313 312 313 319 322 319 318 318 317 317 317 316 316 316 316 314 316 317 314 314 316 316 313 312 314 314 315 317 318 316 315 315 314 315 315 317 320 322
305 306 305 305 307 309 309 308 307 306 307 308 309 309 311 312 313 313 312 311 313 313 313 317 319 318 319 321 322 322 318 315 316 317 317 316 318 319 319 318 315 314 315 313 311 314 316 318 319 314 312 314 313 316 321 320 317 317 316 316 315 314 315 315 315 314 315 315 315 315 316 316 313 311 314 315 313 312 313 313 313 313 314 316 316 318 320 321
303 305 305 305 306 307 309 309 308 308 308 308 309 309 309 311 312 312 312 312 315 314 312 315 318 317 316 318 323 326 321 318 318 318 318 318 319 319 321 322 321 315 313 313 312 310 313 321 322 315 313 315 313 314 318 319 317 317 317 316 314 314 314 314 314 315 314 315 315 315 315 315 312 311 313 315 313 310 310 313 315 315 316 317 317 318 318 321
300 301 302 304 306 306 308 310 309 309 309 308 310 309 309 310 311 312 312 312 314 315 313 314 317 316 314 315 319 321 319 317 318 318 318 318 319 319 318 319 322 320 314 314 315 313 313 318 319 316 316 316 315 316 315 314 313 314 316 316 314 313 314 313 313 314 314 315 315 315 315 313 312 312 313 313 313 312 312 314 315 315 316 316 316 316 318 319
299 299 300 304 307 307 307 309 309 310 310 309 309 309 309 310 310 311 313 312 313 314 314 313 315 316 316 315 317 317 316 317 318 317 317 318 317 317 315 315 319 321 318 316 316 317 317 318 319 319 318 317 317 316 314 312 312 313 315 314 313 313 312 312 312 313 313 314 315 315 315 312 312 315 315 314 314 314 313 313 313 314 314 314 313 314 314 314
Wind_Speed
20 22 21 18 18 18 17 16 15 15 14 14 13 13 11 12 15 17 18 19 19 18 16 15 14 13 13 11 10 9 8 7 8 8 9 10 13 13 10 10 12 9 5 6 7 6 3 1 2 2 4 3 3 0 1 2 2 4 3 3 1 3 4 5 7 7 4 5 7 6 6 8 5 3 2 2 5 4 2 3 3 4 4 2 5 2 20 31
20 23 22 19 20 18 17 16 15 15 14 13 13 12 10 11 15 16 17 18 19 18 15 14 14 13 12 10 9 9 7 7 7 9 14 15 11 12 11 9 9 8 6 7 8 7 5 1 1 4 4 2 2 2 1 1 3 3 3 3 3 6 5 5 7 6 3 4 7 6 5 6 7 5 3 3 0 2 3 1 5 4 5 5 2 10 25 28
21 23 22 20 20 19 17 16 15 15 14 13 13 11 10 10 14 15 15 17 18 16 14 13 13 13 12 10 9 8 7 5 4 8 16 17 12 11 10 8 8 8 7 7 7 6 6 4 4 5 4 2 1 2 2 1 1 2 4 2 5 6 4 4 5 7 4 4 7 5 3 3 4 4 2 4 4 2 5 4 0 3 6 2 4 13 22 24
22 23 22 20 20 19 17 16 16 15 14 14 13 11 10 11 12 13 15 16 16 15 13 12 13 13 11 10 9 9 6 1 3 8 12 15 14 12 8 7 8 8 7 6 6 5 4 5 5 4 5 2 3 3 2 1 1 2 4 3 5 4 2 4 6 6 4 5 7 6 4 3 3 2 3 7 6 2 6 7 7 8 8 6 5 10 18 20
23 23 21 19 19 18 17 16 15 14 14 14 12 11 10 10 12 13 14 15 15 13 12 12 12 12 11 10 10 10 6 1 4 7 10 13 15 12 8 8 8 8 8 7 6 5 4 4 5 5 4 2 2 3 1 2 2 2 0 4 5 3 2 3 5 4 3 5 5 7 6 4 2 1 4 9 7 6 7 8 10 10 11 13 11 12 15 15
23 23 22 20 18 17 15 16 15 15 15 13 11 11 9 10 11 12 14 14 13 12 11 12 11 11 11 11 11 9 6 1 2 5 9 14 15 12 9 9 8 7 8 7 6 5 4 4 5 3 3 2 2 2 2 2 2 2 2 1 3 4 2 1 0 2 4 8 7 7 5 3 4 1 2 8 8 7 6 6 8 7 11 15 15 15 13 13
24 23 23 21 19 16 16 17 16 15 14 12 11 10 9 9 10 12 13 13 12 11 11 11 11 11 11 11 9 5 2 3 2 3 8 13 14 12 10 9 8 8 8 8 6 5 4 5 4 4 4 3 3 3 2 1 4 4 2 1 1 2 1 2 2 1 4 8 6 5 4 3 5 3 1 5 9 8 5 4 4 9 12 14 13 13 13 15
25 23 22 21 19 16 17 17 16 15 14 12 11 9 8 8 9 11 12 12 11 11 10 11 11 12 12 11 7 2 2 4 2 5 9 12 13 12 11 9 9 8 8 7 6 6 5 5 5 4 4 1 4 3 1 3 5 3 3 2 1 1 2 4 4 5 5 4 2 5 5 1 4 3 1 6 10 8 4 2 5 11 12 11 11 12 12 13
25 23 22 21 19 17 18 18 16 16 13 12 12 9 8 7 8 10 12 11 10 11 10 11 11 12 13 8 5 3 4 4 3 6 9 12 12 11 11 9 9 8 8 6 5 8 5 4 5 4 4 3 4 4 2 3 1 2 4 3 3 2 5 4 4 6 4 2 2 5 2 3 2 1 2 8 8 3 2 5 5 9 9 10 10 11 12 11
25 22 21 20 18 18 19 19 17 15 13 13 12 9 8 6 7 10 11 10 11 11 11 12 12 13 12 6 5 4 5 3 5 8 10 12 12 12 11 9 9 9 8 5 5 7 4 5 6 5 5 3 4 3 2 3 3 3 6 5 5 2 4 3 3 4 3 2 2 5 3 4 2 2 4 6 4 1 6 6 4 8 9 10 9 10 13 13
24 21 20 20 18 18 19 19 17 15 14 14 11 8 7 6 6 9 10 10 11 11 11 12 12 13 10 4 5 5 4 3 6 9 11 11 11 11 10 9 9 9 8 5 6 6 3 7 8 5 2 2 4 2 1 2 3 5 7 5 6 5 2 4 4 2 3 2 2 6 2 4 3 2 5 4 5 1 7 6 5 7 7 9 9 9 10 13
24 20 20 19 18 17 17 17 16 15 14 13 11 8 7 6 6 8 10 10 11 11 11 12 13 13 6 2 3 5 3 4 7 9 11 11 11 10 8 8 8 7 7 5 6 6 5 8 9 6 1 3 4 2 1 2 4 4 5 4 6 7 4 2 2 2 2 2 1 3 1 4 3 5 6 1 4 2 5 6 6 7 6 6 7 7 7 13
24 21 20 20 18 16 15 15 15 15 14 13 11 9 7 7 6 8 10 10 10 11 12 12 13 11 5 1 4 6 3 4 7 10 10 10 10 10 8 8 7 6 5 4 6 7 5 6 8 6 3 5 3 2 4 4 4 2 4 5 2 6 3 2 1 1 2 2 3 2 1 6 8 9 5 2 3 5 3 6 6 6 6 5 6 6 7 12
24 22 21 20 18 16 15 13 14 15 14 12 10 9 9 7 7 8 9 10 11 11 11 13 13 8 3 2 3 5 6 4 7 10 10 10 10 9 7 7 7 6 5 3 6 7 4 6 8 6 3 4 3 2 4 5 4 2 2 3 2 1 4 5 2 1 4 0 3 5 2 6 8 9 6 5 1 6 6 8 8 7 6 5 5 6 7 10
24 23 21 19 18 16 15 14 14 14 15 13 9 8 9 8 7 7 9 10 10 11 11 12 12 6 1 3 2 3 7 5 8 11 10 11 10 8 6 7 6 6 5 4 7 7 6 8 8 5 1 2 4 6 4 4 4 3 2 1 2 3 5 7 2 3 5 1 4 6 3 6 7 9 6 4 2 7 7 7 7 7 7 6 6 6 7 9
25 24 22 19 18 16 15 14 13 14 14 12 9 9 10 9 7 8 9 10 10 11 10 9 9 6 2 1 1 2 5 5 8 11 9 11 9 6 7 8 6 6 7 6 8 8 7 7 5 2 3 3 5 7 4 3 3 4 3 2 2 3 3 4 1 1 2 1 3 3 3 4 5 7 7 4 5 5 5 7 7 7 8 7 6 7 7 8
26 25 22 20 18 17 15 13 13 13 11 11 9 9 10 8 7 8 9 11 11 10 8 7 7 3 1 1 1 1 4 5 10 11 10 9 7 7 10 7 5 7 8 7 8 6 5 5 2 0 3 4 3 6 5 1 3 3 2 2 3 3 2 2 2 2 3 2 1 3 1 6 7 7 8 5 4 3 3 7 7 7 7 7 7 7 7 8
27 25 22 20 19 17 15 14 13 12 11 11 10 11 11 9 9 9 11 13 12 9 6 4 5 2 2 2 2 3 3 7 10 11 9 7 7 8 8 5 5 7 7 5 3 2 3 4 2 2 3 3 2 5 5 5 5 5 3 3 2 2 3 3 3 2 3 3 1 1 2 9 11 9 10 8 2 2 7 7 6 7 7 8 7 7 8 9
27 25 23 21 19 18 16 15 14 13 13 13 13 15 14 12 10 8 8 9 7 5 3 4 5 3 4 4 2 2 5 9 10 9 7 6 8 8 6 6 6 7 5 3 1 1 2 3 4 3 2 3 5 6 6 7 8 9 6 5 5 3 4 5 4 4 1 3 2 4 4 8 10 9 10 9 2 1 8 6 6 8 7 8 7 8 9 9
27 25 24 21 19 18 17 16 14 14 15 17 18 15 11 8 6 3 1 1 2 3 2 4 6 3 0 1 2 6 9 8 5 5 6 6 9 8 5 4 5 5 4 4 3 1 3 4 3 5 7 8 9 7 5 5 6 8 6 5 4 4 2 4 3 5 1 4 3 3 4 8 10 11 12 10 4 4 8 8 9 9 8 8 8 10 10 11
28 26 24 21 19 17 16 16 15 15 18 21 19 9 4 6 4 4 3 3 4 3 1 2 5 3 1 1 5 7 6 4 2 2 6 5 8 8 1 2 5 3 1 3 3 1 4 5 7 7 8 8 7 7 7 7 6 6 6 5 2 2 2 3 1 4 3 1 3 2 3 9 11 11 12 8 6 7 9 10 11 12 10 9 9 12 13 10
28 26 24 21 19 17 16 15 16 17 18 19 13 3 2 4 4 8 7 1 4 1 2 2 4 3 1 3 5 3 3 4 2 0 3 4 4 5 1 3 6 4 1 2 3 2 2 4 9 7 5 7 6 5 7 7 6 5 4 6 3 2 2 3 3 4 4 0 3 3 4 9 11 11 12 10 9 9 9 10 10 10 10 10 10 12 12 10
28 25 23 21 18 16 15 16 18 18 18 16 9 4 3 4 7 10 6 4 2 0 2 2 3 3 2 1 5 2 3 4 5 3 3 4 3 3 4 5 5 4 2 4 6 6 3 6 6 5 7 9 6 4 8 7 4 4 4 6 3 2 1 1 2 3 3 2 1 3 5 8 7 7 10 11 8 7 7 8 9 9 10 13 11 9 9 10
27 25 23 21 18 16 17 19 18 17 18 15 12 9 7 8 10 10 3 3 2 1 1 2 2 4 3 3 6 5 3 2 4 5 5 6 4 2 4 5 5 5 3 5 7 7 5 5 2 7 6 8 7 4 7 6 2 1 3 6 4 3 4 3 1 1 2 3 3 4 5 6 4 5 8 7 4 4 5 6 9 10 10 11 10 9 8 9
28 25 23 21 18 19 21 19 16 16 16 11 13 11 7 7 10 8 3 3 1 1 1 1 1 3 5 5 5 5 3 1 1 3 5 7 6 3 3 2 4 4 4 5 7 6 4 4 3 8 5 6 8 5 5 7 3 1 3 6 6 7 6 2 2 4 4 4 4 5 3 6 5 4 7 6 6 6 4 4 9 11 9 8 9 9 8 8
28 26 24 22 21 25 21 12 12 17 12 9 13 12 6 6 9 7 4 4 1 1 1 3 2 5 8 5 4 4 3 1 2 1 4 5 4 3 3 1 2 3 5 5 4 3 1 2 3 7 6 6 7 5 5 5 6 1 4 5 6 7 8 6 4 4 2 2 3 4 2 5 7 5 8 5 7 10 8 7 11 10 8 6 7 8 6 7
28 26 26 24 26 28 16 6 15 17 7 8 13 12 6 8 10 5 5 5 3 2 4 1 0 6 9 4 5 6 3 4 2 3 3 3 1 3 4 3 2 2 3 4 2 2 1 3 5 6 7 6 6 4 5 6 8 3 3 6 8 8 8 6 6 4 1 2 4 5 4 2 6 6 6 6 6 10 10 10 12 9 8 8 7 8 7 8
27 26 28 27 28 26 11 9 21 16 5 9 14 11 9 11 9 4 5 2 2 3 4 1 1 5 5 2 4 5 2 3 5 2 1 4 1 4 3 5 5 4 2 4 4 3 1 2 3 5 6 4 4 4 5 8 6 3 3 7 6 7 7 5 6 4 1 1 4 5 1 2 6 7 5 5 4 9 10 11 11 8 9 9 8 8 8 8
27 28 29 28 28 21 8 12 22 15 9 14 15 12 12 12 7 4 4 2 1 2 2 2 3 3 3 4 3 3 1 2 2 3 2 4 1 4 3 5 6 7 3 4 5 2 1 2 5 6 5 4 3 1 4 5 2 3 6 8 6 6 6 5 5 4 3 2 4 6 1 2 5 7 4 3 2 7 10 9 8 8 9 9 8 8 7 6
28 28 28 30 28 19 9 12 19 14 11 15 16 15 14 8 4 5 3 4 2 1 0 2 3 3 6 8 2 2 2 2 0 1 3 1 3 6 3 2 6 7 4 6 4 1 2 2 1 3 3 5 4 3 2 2 3 8 7 7 7 6 6 4 3 4 4 3 6 6 2 1 4 6 4 3 4 6 6 6 7 7 9 9 7 6 6 5
27 27 29 31 28 19 10 10 16 15 13 17 18 15 10 4 3 5 6 3 3 2 1 1 2 5 12 13 5 1 3 2 0 4 3 1 3 4 2 2 4 5 3 4 3 4 4 3 1 0 1 3 6 5 4 3 4 7 5 5 5 4 5 4 5 4 1 5 6 4 2 2 4 6 5 5 6 6 5 6 7 8 10 10 7 6 6 5
26 27 31 31 26 19 9 9 18 17 15 19 17 9 6 4 2 5 4 2 3 3 4 5 3 6 12 10 5 4 4 2 1 5 5 3 3 3 3 4 4 4 2 3 1 2 3 1 2 3 1 3 6 5 5 5 5 5 5 6 5 2 3 2 3 1 3 6 4 2 2 3 6 8 9 11 12 8 7 8 8 7 9 9 8 7 6 5
28 29 29 27 24 18 8 11 18 16 17 20 11 4 6 4 8 8 4 3 2 2 4 4 2 5 10 8 5 4 3 2 3 3 3 4 5 4 2 3 5 5 3 4 4 2 1 4 3 1 1 2 5 5 4 1 0 4 5 5 4 3 2 2 4 2 3 4 3 3 2 3 5 6 9 15 13 7 5 7 8 7 8 9 8 7 6 6
29 29 27 24 22 16 8 11 17 15 17 16 7 4 6 7 7 6 5 4 1 2 3 4 6 7 8 5 5 5 3 1 3 4 2 4 6 6 5 4 3 5 4 3 3 5 4 4 3 3 1 2 3 4 6 6 3 2 3 5 5 5 5 4 4 3 4 3 3 3 2 3 3 2 6 10 10 7 5 7 6 7 8 8 8 7 5 6
29 26 25 22 20 16 8 9 15 16 14 9 5 6 10 9 4 4 6 5 0 2 3 4 8 8 4 2 0 4 3 2 3 4 4 5 6 7 6 5 5 4 6 5 3 2 4 4 4 2 1 3 3 2 3 7 2 1 2 5 3 4 5 3 3 5 3 2 3 2 3 5 4 6 9 7 7 8 6 5 4 7 7 5 6 7 4 5
30 26 21 19 19 17 10 8 14 17 10 6 6 9 9 5 3 4 5 5 3 6 7 4 4 5 4 2 1 5 1 3 4 4 3 4 3 6 6 5 6 5 6 6 3 1 3 2 4 3 2 2 1 1 2 3 3 2 2 3 5 4 7 5 2 1 3 1 4 1 4 5 4 6 9 6 7 9 8 7 6 7 7 6 6 7 5 5
28 23 16 15 18 18 12 8 14 15 6 5 9 8 4 2 3 4 4 4 5 8 10 5 2 4 5 3 5 6 2 3 4 4 4 3 2 5 6 4 5 8 7 4 2 3 5 1 4 1 1 2 1 2 4 3 3 5 3 5 4 2 5 4 2 3 3 2 5 1 4 5 2 4 7 6 4 9 10 9 8 7 7 7 7 4 4 6
22 15 10 12 18 18 13 10 12 11 4 4 9 5 2 2 1 2 2 4 7 6 6 6 3 3 6 6 6 6 5 4 5 4 4 4 4 5 8 4 3 8 8 3 2 2 5 3 4 1 2 3 4 3 2 4 3 4 4 3 4 3 2 2 2 2 1 2 4 4 4 4 4 5 5 3 4 7 9 10 8 8 7 7 6 4 5 5
13 8 3 8 17 18 16 11 9 7 3 6 10 5 2 2 0 1 0 3 6 5 5 5 2 2 5 6 6 7 6 6 7 5 3 4 4 4 8 5 2 7 8 4 4 3 4 4 2 2 1 2 4 2 4 1 3 3 2 2 2 2 4 2 3 4 3 3 3 4 4 3 6 6 6 8 8 7 7 8 7 8 8 7 6 5 5 6
4 3 2 7 16 18 17 9 5 5 4 6 6 3 1 1 1 3 2 1 3 3 4 5 3 4 4 4 5 6 5 5 8 6 4 6 4 5 6 6 5 7 6 4 4 3 2 3 4 2 3 1 1 3 7 7 4 3 3 3 2 1 2 2 1 2 4 4 2 2 4 6 6 4 8 10 9 8 8 6 6 7 7 6 5 6 7 7
1 2 2 8 16 19 15 6 2 4 4 2 2 2 1 1 0 3 4 1 1 1 2 5 5 5 5 4 4 5 4 4 7 6 4 6 6 5 6 8 8 8 6 3 3 4 3 3 4 2 0 4 4 3 5 7 6 6 6 6 7 4 4 3 2 1 2 3 4 3 4 8 6 4 7 7 7 8 7 4 5 6 6 5 6 6 7 6
2 3 2 9 17 18 12 5 0 2 2 2 2 2 1 2 2 1 3 2 2 1 2 4 4 3 5 5 5 6 6 5 6 6 4 7 9 7 6 7 10 12 9 5 4 3 3 4 5 2 3 5 5 3 2 3 1 2 4 5 5 4 5 6 5 3 1 1 2 3 2 7 5 3 5 5 6 6 5 5 5 6 6 4 5 7 7 6
2 2 2 12 20 14 6 3 1 1 1 1 0 2 2 2 2 1 2 2 1 1 2 1 2 2 3 3 5 7 8 5 6 8 6 6 7 6 6 9 12 12 10 6 4 3 3 4 4 1 3 3 4 5 3 2 1 1 4 3 5 3 3 5 5 4 4 3 3 3 3 7 5 3 3 5 4 4 4 4 5 5 5 5 7 6 5 6
2 2 1 11 18 10 2 2 4 5 2 1 3 2 1 1 1 2 1 1 0 1 2 1 1 2 2 3 5 8 9 6 6 8 5 3 4 3 6 11 11 11 9 6 6 6 3 3 5 3 2 4 4 3 3 2 2 4 4 3 4 4 6 4 2 4 2 6 7 5 5 6 4 5 4 4 4 3 5 5 5 5 6 5 6 6 5 6
2 2 2 3 8 5 1 2 3 3 3 3 4 2 1 1 0 1 2 1 0 2 2 1 0 2 2 2 4 4 8 6 3 5 3 2 3 2 4 10 11 9 6 3 6 7 6 4 5 6 6 5 6 5 5 4 3 2 2 4 6 7 9 5 2 4 4 5 7 7 9 5 2 6 5 4 5 4 5 6 4 5 5 4 5 6 6 6
2 2 1 1 1 1 1 2 4 3 3 4 4 3 4 3 1 1 2 2 1 2 2 1 1 2 2 3 5 4 8 5 2 3 5 5 3 2 2 8 10 8 5 7 8 7 4 3 6 9 11 12 11 8 4 7 6 5 6 8 8 9 11 8 4 4 7 3 4 11 12 9 6 3 4 6 5 5 7 6 7 6 4 4 6 7 7 6
1 2 3 2 1 3 2 2 5 4 3 5 4 4 7 6 1 1 1 1 1 1 2 2 1 2 2 5 5 4 7 5 1 3 5 5 2 2 1 3 6 6 6 8 7 6 4 4 8 10 13 13 9 6 5 8 10 12 11 11 10 10 11 10 9 12 7 4 7 12 7 9 15 8 6 9 6 5 8 8 8 7 6 6 8 7 7 8
0 1 1 1 1 4 4 5 7 6 4 5 2 3 7 7 6 4 1 1 1 0 2 0 1 3 4 5 5 4 5 5 4 3 2 2 2 1 3 2 2 3 5 5 4 4 5 6 8 8 12 13 6 5 6 8 9 10 12 14 14 13 14 14 17 17 9 7 14 11 10 11 19 11 9 11 9 9 10 9 7 6 7 8 9 9 8 8
1 1 1 2 1 3 3 6 9 8 7 7 3 3 6 9 9 6 2 3 0 1 3 3 3 5 4 3 4 5 5 5 6 5 3 3 3 2 2 1 1 1 4 5 3 2 4 5 6 8 10 13 8 6 7 9 8 7 10 13 15 16 18 19 20 20 15 12 15 11 8 13 17 9 8 10 11 10 8 6 6 8 10 10 9 9 8 9
1 0 0 2 2 1 1 6 10 8 6 7 5 3 6 9 10 6 3 4 4 3 4 6 5 5 5 3 4 4 5 5 4 5 5 5 3 3 4 4 2 1 2 4 3 2 3 4 3 7 5 10 8 7 7 8 8 7 8 10 13 15 18 19 19 16 12 10 13 14 12 14 14 7 7 10 7 3 3 6 8 9 10 10 9 10 9 9
1 1 1 2 2 2 2 4 7 6 4 6 6 4 6 9 10 7 3 3 5 5 7 8 6 4 4 4 4 5 6 5 7 5 6 6 5 3 2 3 4 5 5 5 3 3 4 3 1 6 4 7 6 8 9 5 3 3 6 9 14 14 14 16 14 11 10 11 14 13 11 14 12 6 7 8 5 5 9 10 9 9 9 10 10 10 10 10
2 2 2 2 1 2 2 3 6 6 4 6 8 7 8 9 8 7 3 2 3 6 6 8 8 5 3 6 8 8 6 5 5 5 5 4 4 4 3 2 5 6 7 6 3 3 6 5 2 5 5 6 4 6 8 6 4 4 10 14 16 15 14 11 7 8 13 13 11 10 11 16 11 4 6 8 6 9 13 10 9 10 11 10 11 11 11 10
Wind_Direction
182 183 184 183 182 183 185 186 187 191 194 195 195 196 196 197 199 199 199 200 201 202 204 209 209 206 205 203 202 210 222 231 240 218 210 238 235 232 235 219 218 224 222 198 184 189 193 211 199 143 121 94 14 10 49 33 75 60 84 109 169 185 199 185 176 192 177 177 191 202 184 147 158 212 177 67 54 75 74 24 330 319 344 300 289 311 159 165
181 182 184 182 182 184 186 187 187 192 194 195 197 198 196 195 198 198 200 203 203 205 207 209 206 202 202 197 196 206 216 229 238 232 230 239 239 227 227 224 216 216 208 192 191 186 166 169 162 105 85 65 350 10 43 10 83 86 112 115 213 203 202 192 175 190 177 168 181 179 184 163 164 174 145 149 154 86 127 316 344 329 323 357 37 138 153 164
180 181 183 183 185 185 185 187 188 191 192 194 197 197 197 196 196 196 199 204 205 208 209 207 202 198 198 190 190 200 205 219 241 249 243 237 230 219 219 226 213 202 198 188 188 183 164 159 143 108 67 64 349 22 76 30 80 148 122 115 236 210 214 229 184 201 207 159 160 169 182 162 170 171 152 166 159 141 183 207 246 243 262 326 115 142 152 163
182 181 183 185 187 187 185 187 187 188 189 194 197 195 198 197 193 193 195 201 206 209 209 203 199 195 192 183 184 191 185 204 246 231 232 223 213 211 213 216 198 190 194 178 171 175 149 122 116 93 73 71 341 18 125 285 230 148 123 172 227 184 178 228 198 220 222 165 161 152 130 144 195 175 141 145 137 250 240 215 197 200 200 173 162 156 155 164
182 182 183 184 186 188 186 186 185 184 189 196 197 195 196 192 191 191 192 198 203 205 206 201 196 192 185 178 182 187 161 78 243 205 203 200 196 205 207 199 190 187 184 169 167 160 136 105 90 70 67 99 11 39 183 266 109 106 171 197 202 153 139 218 194 212 172 134 132 131 144 168 166 134 147 152 161 230 233 215 208 193 172 166 169 166 163 169
183 183 185 186 189 191 186 183 184 185 192 196 194 196 194 188 190 190 191 195 197 199 201 198 192 185 180 178 182 181 160 159 255 181 188 185 186 201 195 189 189 179 172 170 170 145 122 78 79 98 69 84 128 129 189 295 66 125 258 248 211 190 165 288 227 241 144 125 142 157 165 140 120 161 181 172 196 222 224 226 212 184 165 163 158 162 169 176
184 185 187 189 192 191 184 181 183 187 193 193 191 193 189 187 189 188 190 190 191 194 196 194 187 180 175 170 170 163 176 257 282 169 181 176 181 193 185 188 179 168 169 165 159 135 115 90 108 144 92 80 162 153 166 16 41 102 169 283 228 187 172 340 11 54 129 136 175 169 125 126 154 169 115 206 232 241 263 286 190 153 149 152 153 169 181 184
184 185 187 189 192 187 183 182 182 187 191 189 188 186 180 185 187 185 188 187 185 188 193 190 181 176 171 162 151 116 262 257 242 171 174 171 178 182 179 182 168 162 165 166 168 152 134 123 154 152 98 174 166 133 132 74 39 92 161 209 93 50 336 343 33 64 87 115 144 120 114 211 194 151 129 236 247 253 271 8 123 137 141 156 167 181 186 190
184 186 188 189 190 184 181 182 183 187 187 184 185 181 175 181 184 184 187 184 179 184 189 184 179 174 172 165 122 129 228 236 200 173 170 170 175 176 178 174 165 162 154 165 168 151 160 165 183 175 144 186 140 126 135 109 222 168 133 145 99 11 335 355 37 45 54 57 61 119 110 314 228 166 255 245 246 241 92 71 114 136 147 174 180 186 188 193
185 188 189 187 187 182 181 181 183 186 182 183 190 184 175 180 185 183 185 182 176 180 185 181 179 174 176 169 112 162 233 215 186 180 172 173 175 176 176 168 168 168 154 152 151 147 170 186 181 153 130 130 113 118 146 142 190 145 109 106 84 20 325 5 62 20 19 36 44 142 174 307 302 304 254 260 289 154 109 92 135 150 166 186 186 195 195 199
187 188 186 184 184 183 182 180 180 184 181 181 191 191 179 181 186 182 181 181 175 175 182 183 176 175 182 160 135 194 235 191 191 183 175 176 177 179 174 170 174 175 161 140 164 169 157 167 152 114 118 152 117 83 230 160 111 118 118 94 19 6 14 32 85 12 5 74 64 125 151 310 345 296 223 262 326 199 147 138 168 176 188 195 194 200 200 211
188 185 182 183 184 182 182 181 178 181 183 180 184 190 183 185 187 181 177 176 176 173 178 182 176 175 171 107 169 210 211 188 196 183 181 178 174 177 172 177 182 180 173 148 180 177 132 155 132 97 200 149 123 105 164 99 82 111 103 98 345 4 35 10 88 325 9 123 297 106 69 296 250 233 214 265 354 88 152 175 195 205 211 207 206 210 209 221
188 184 182 184 185 184 181 183 181 179 181 182 182 185 187 191 186 177 174 172 173 172 174 178 176 172 154 124 218 211 202 198 193 186 183 175 171 177 179 186 185 177 176 159 178 166 133 158 131 111 132 108 122 184 120 68 68 117 63 97 26 11 359 314 28 323 113 128 311 123 186 274 253 247 233 304 29 98 163 221 223 225 226 223 216 219 227 230
187 184 183 185 186 184 181 184 185 181 180 183 182 182 188 192 183 171 167 168 169 169 172 172 171 165 153 228 228 210 214 206 192 189 181 176 171 171 177 184 184 180 177 159 168 164 143 146 120 102 102 95 129 112 60 28 33 88 61 61 59 102 261 300 322 141 133 198 7 110 181 266 265 271 275 295 214 152 198 231 232 234 235 232 222 223 236 237
187 185 184 185 185 182 181 182 184 186 191 191 185 184 186 183 178 165 160 164 164 165 165 165 167 154 100 270 264 205 208 204 193 190 182 180 171 164 174 171 169 170 165 154 154 150 136 129 104 85 84 27 86 91 47 14 20 43 102 321 349 163 255 309 297 159 144 273 35 100 204 267 271 276 289 323 136 170 206 232 240 242 241 238 231 228 235 245
187 186 184 184 183 180 181 181 184 190 193 192 187 187 181 170 164 156 158 159 153 156 154 156 167 149 105 246 291 164 194 196 189 187 182 179 173 163 157 144 133 135 133 131 136 128 106 97 73 80 116 63 87 101 65 34 359 0 101 189 252 167 259 314 304 261 126 146 16 69 212 264 287 280 292 351 83 144 202 242 253 246 247 243 234 234 235 250
187 186 185 183 182 181 180 182 184 182 180 181 180 175 164 151 149 148 148 142 136 135 132 150 166 147 83 141 112 196 199 187 181 180 177 176 175 157 143 124 103 114 109 110 122 107 63 54 48 71 69 69 106 102 88 44 272 303 51 125 225 182 197 285 278 310 46 102 312 10 257 252 274 287 293 319 56 69 248 251 256 249 253 251 242 245 240 244
186 185 184 183 183 181 182 184 181 175 172 172 160 147 136 125 126 130 134 130 121 105 97 135 141 144 246 206 188 208 181 170 169 168 167 167 162 147 134 114 106 105 90 80 86 69 32 28 68 100 42 64 134 112 136 204 200 195 181 146 205 213 204 242 249 254 43 70 220 14 297 265 272 287 292 293 9 328 270 257 261 257 251 253 250 247 243 243
185 185 184 183 183 183 185 184 179 174 166 157 143 130 116 104 100 106 131 132 121 112 131 174 149 156 218 216 196 135 133 150 155 158 155 150 149 131 101 99 101 95 99 94 60 82 80 53 70 121 138 165 185 167 171 196 177 174 178 146 153 177 227 241 254 266 123 111 221 219 236 269 277 284 288 288 322 285 278 284 277 264 254 251 248 245 244 241
184 184 183 183 183 185 187 183 178 173 161 152 145 131 114 112 96 84 182 204 196 169 153 186 166 138 215 254 135 119 122 131 138 152 147 148 148 125 67 64 74 70 116 147 153 137 95 121 172 182 186 194 191 171 143 146 143 143 131 111 144 164 235 250 269 305 78 134 252 239 240 268 274 276 273 279 312 300 279 281 270 262 258 252 248 251 246 239
183 183 183 182 183 184 185 180 173 167 162 160 156 142 145 160 131 156 193 283 245 207 358 206 149 105 64 148 149 142 120 99 67 116 144 152 144 139 45 40 103 102 186 158 135 74 84 152 210 208 191 180 164 145 111 97 92 106 133 125 118 169 220 247 238 315 348 155 262 352 309 269 263 270 270 272 283 263 247 248 254 255 255 257 254 255 253 250
182 182 182 180 179 181 179 172 165 166 168 168 170 189 211 166 126 153 151 131 236 206 57 150 108 71 41 145 168 169 67 93 112 300 160 140 125 158 179 76 130 157 213 114 107 86 98 209 226 208 155 107 97 112 98 88 89 87 117 130 135 193 228 288 293 328 5 43 263 345 336 275 261 263 264 256 247 243 235 231 242 249 252 255 248 250 259 269
182 182 181 177 175 173 169 164 162 168 173 174 189 208 167 132 132 149 133 96 188 14 83 153 136 112 71 145 194 163 77 134 170 222 197 139 121 167 133 107 135 137 133 154 144 139 165 249 233 167 138 118 94 86 97 86 79 89 106 130 160 242 145 207 282 328 15 66 259 318 308 277 276 280 270 260 250 254 257 248 247 245 244 249 250 250 255 261
181 182 178 174 173 168 163 161 161 172 179 185 205 193 139 124 146 154 109 74 145 245 234 206 168 156 143 155 178 153 104 145 167 188 183 144 133 146 140 136 128 124 166 168 148 156 197 265 178 122 135 138 120 112 128 118 72 62 133 137 161 202 171 185 265 354 9 21 31 2 322 290 308 321 284 283 306 280 270 278 268 253 245 252 265 264 249 249
180 180 174 171 169 161 159 160 164 176 180 194 210 190 135 127 155 156 96 72 144 309 298 232 186 189 169 133 158 164 128 133 199 190 175 150 139 131 144 139 125 156 182 137 133 168 222 273 134 119 108 119 126 151 174 147 119 286 203 175 177 170 157 145 54 58 37 356 353 24 356 290 313 316 272 295 341 304 290 300 274 262 257 253 262 265 253 250
178 176 171 168 161 156 156 163 177 175 173 205 203 180 160 152 154 156 95 60 268 268 161 175 149 180 173 139 151 140 107 232 281 97 136 146 137 106 130 128 72 162 172 135 133 176 232 346 84 122 116 112 126 162 204 151 120 198 223 171 149 128 123 124 98 76 84 265 319 42 111 265 308 293 265 309 334 304 299 292 273 271 279 265 255 261 249 248
176 174 170 165 161 159 156 160 170 163 164 213 190 167 171 159 150 152 77 47 275 181 138 190 10 165 170 167 152 132 156 220 118 74 101 132 125 52 119 177 110 138 170 126 128 223 157 51 58 90 94 102 128 170 203 144 124 200 213 123 118 115 124 132 102 87 195 241 327 14 111 242 296 266 271 333 332 304 298 283 278 285 295 283 261 252 239 238
174 173 170 167 168 169 165 152 159 163 181 178 165 157 154 149 148 124 85 99 248 131 137 231 134 147 147 116 116 113 209 203 127 177 356 91 131 42 100 190 156 138 131 121 173 252 94 114 151 121 94 118 171 201 179 127 112 223 178 115 112 116 122 117 94 88 17 353 315 316 111 196 274 273 306 347 315 289 281 268 276 291 296 292 277 259 249 253
174 173 172 170 171 172 178 166 163 173 181 156 151 154 145 143 142 87 86 186 199 82 131 146 129 141 119 111 97 68 41 42 120 217 2 83 99 45 118 188 137 117 55 92 163 231 35 196 194 138 123 177 193 220 161 125 98 178 134 95 73 72 78 76 88 96 44 14 250 260 224 185 267 285 317 358 267 261 264 265 269 274 284 291 287 273 266 276
174 174 174 171 170 170 166 171 171 172 168 156 153 149 139 135 122 111 182 217 150 95 78 138 166 161 139 140 131 11 86 55 25 90 37 81 34 30 104 149 99 104 37 39 95 255 312 291 196 115 138 181 141 92 127 141 140 137 109 71 56 34 31 45 52 77 59 312 254 251 257 177 265 281 261 212 217 224 248 287 289 292 305 304 298 292 285 286
175 175 175 171 170 169 153 168 174 164 162 161 151 142 130 92 75 148 203 214 125 102 78 154 184 145 154 160 165 152 97 49 198 133 127 144 61 51 122 126 75 83 51 43 43 330 354 22 336 285 144 132 100 71 45 29 91 108 92 88 82 8 9 26 2 36 103 258 260 257 258 172 221 261 252 242 256 237 226 267 280 295 311 312 319 325 305 292
171 172 173 172 174 173 160 173 167 153 160 159 145 132 110 91 189 197 199 168 150 188 174 177 203 171 165 157 140 148 126 87 179 146 144 147 151 166 165 172 156 112 141 175 148 351 18 23 307 317 264 142 107 81 45 8 22 74 95 100 93 13 10 0 319 341 216 245 264 263 228 201 232 251 256 262 270 254 220 232 246 267 292 300 314 327 323 321
165 166 171 175 178 176 161 168 166 153 155 154 137 78 83 139 210 201 178 187 198 194 146 140 146 149 152 144 144 158 118 127 187 148 132 130 154 204 240 189 147 124 174 182 133 127 321 309 313 22 284 188 132 125 132 213 350 117 133 124 122 123 99 260 267 280 259 256 274 266 236 246 260 257 249 252 261 258 226 233 239 253 273 280 288 301 307 308
165 165 174 180 183 180 159 164 175 163 151 150 130 95 133 191 204 158 160 209 263 43 76 106 111 123 142 147 177 175 107 108 174 125 113 126 146 198 226 220 156 104 115 137 147 164 175 268 241 163 210 188 160 169 152 149 144 168 162 129 141 155 152 203 220 212 242 276 296 282 250 202 206 257 247 242 263 281 255 244 251 259 260 266 279 282 284 288
170 168 173 181 190 194 178 167 179 171 157 146 126 153 186 204 191 139 169 191 188 52 49 82 115 129 147 67 178 199 134 140 175 122 146 167 168 194 196 197 196 132 130 157 198 166 154 239 265 283 279 140 161 244 115 109 112 234 129 103 154 185 140 139 183 176 176 320 305 259 238 213 206 281 278 263 286 296 277 276 296 281 281 306 292 280 292 293
171 171 172 183 197 199 188 172 175 175 167 141 150 187 203 196 173 181 169 151 147 130 106 80 96 132 162 96 185 224 124 112 156 144 183 194 189 199 191 192 190 173 162 156 160 160 148 246 307 338 357 78 133 254 73 111 180 167 127 173 215 177 111 114 204 70 83 264 273 226 253 290 330 295 289 302 300 296 301 307 301 287 304 325 295 284 301 285
164 165 168 183 196 195 185 165 166 170 161 150 179 198 194 129 163 172 142 127 143 137 128 135 164 152 163 165 188 203 169 112 153 168 189 196 225 197 190 220 193 182 190 151 142 196 151 165 316 29 106 337 312 130 50 39 126 121 171 210 198 128 90 107 168 6 43 243 274 269 242 285 331 278 311 347 293 273 280 278 278 293 305 299 284 269 245 247
151 148 154 178 189 187 172 150 157 157 112 166 198 206 146 139 156 127 107 132 136 131 141 160 170 148 165 177 182 183 171 158 174 182 169 188 247 201 172 197 201 185 198 162 148 205 132 135 308 18 154 306 350 99 66 358 69 129 188 176 116 144 166 91 146 173 138 234 280 299 279 260 208 228 291 300 223 240 262 265 268 278 281 281 285 264 232 244
136 130 120 181 185 182 170 152 143 132 109 188 202 215 182 155 47 6 270 146 133 127 158 178 161 120 169 174 165 171 182 176 170 177 176 186 241 224 177 182 191 187 192 154 150 193 130 137 254 306 240 302 12 110 191 254 35 61 116 109 82 139 165 164 157 161 170 196 258 308 324 262 222 212 213 223 225 223 243 255 248 249 256 265 285 304 306 304
119 105 70 176 182 184 179 155 109 130 177 201 195 200 183 109 304 291 306 154 143 131 168 186 161 143 165 166 158 170 181 171 166 179 200 182 203 242 207 189 173 172 170 117 128 169 132 145 201 295 337 183 192 210 186 166 137 117 134 167 194 76 108 166 149 118 143 160 192 283 300 266 246 208 191 210 225 217 217 229 230 241 260 274 303 323 319 306
52 91 112 164 172 176 170 144 110 175 188 204 151 155 169 114 90 306 329 6 118 101 150 156 151 152 152 151 174 179 159 155 173 183 205 195 198 226 212 183 158 146 138 114 153 172 157 155 166 150 286 202 224 245 184 174 170 164 179 194 186 157 126 157 245 262 115 145 173 185 272 268 247 201 195 206 220 222 217 222 249 266 275 302 325 306 287 282
62 80 134 169 170 168 155 134 246 163 134 177 166 131 123 97 76 337 331 8 62 39 74 108 126 151 158 160 170 168 155 158 182 187 207 209 203 214 214 174 149 151 157 159 178 171 124 111 125 156 221 218 242 276 194 190 179 153 207 206 175 165 142 151 206 228 124 169 166 118 273 272 260 207 208 224 235 238 226 205 230 268 274 286 283 272 277 278
94 70 139 167 168 165 136 112 200 155 150 225 124 57 71 81 67 20 348 6 55 70 48 75 122 142 171 166 149 164 171 172 191 198 209 214 211 218 198 163 149 157 163 158 167 158 108 114 131 192 300 309 312 331 18 73 85 230 241 189 157 184 148 144 181 174 152 192 156 105 262 269 288 290 252 262 268 268 260 217 208 260 285 275 262 276 300 283
120 56 64 158 163 164 135 145 181 178 173 86 80 75 53 70 102 113 70 346 41 103 104 125 138 127 163 154 142 173 185 178 198 208 201 197 223 223 173 168 162 164 176 186 176 174 188 165 132 116 15 346 335 338 330 277 197 210 227 164 152 140 102 103 139 111 187 217 163 158 241 248 283 315 309 307 322 307 257 229 200 229 263 275 292 322 314 279
123 88 14 143 155 168 188 138 145 150 131 115 131 151 124 87 85 129 131 140 142 132 130 151 166 91 108 142 123 162 189 182 179 200 192 193 247 277 179 180 180 180 192 180 147 160 185 176 148 154 173 199 208 209 224 211 175 200 198 162 170 154 145 165 136 113 234 228 156 188 237 237 309 339 331 319 336 321 255 238 233 234 245 278 304 311 301 299
139 124 105 81 112 176 193 89 109 126 143 146 155 176 169 170 297 345 129 153 168 125 88 36 166 87 73 135 130 161 205 204 105 147 192 201 221 285 205 183 192 195 160 119 133 144 141 175 190 190 197 205 205 205 172 127 142 204 196 172 179 180 176 172 132 172 211 169 170 224 236 245 261 298 312 300 308 291 269 272 282 277 278 289 274 271 290 311
138 134 148 142 126 165 183 155 146 153 182 173 163 174 179 178 170 9 332 218 179 122 65 25 111 144 156 159 151 179 205 206 137 160 198 203 209 315 351 165 201 203 140 132 158 133 102 210 212 202 219 223 205 195 170 140 168 200 191 176 183 185 180 177 196 214 187 120 238 233 205 244 255 231 227 260 253 244 256 253 254 260 264 271 273 288 313 313
52 86 152 90 105 174 189 184 168 158 168 177 154 145 173 180 177 181 230 12 12 90 153 249 291 188 176 163 162 173 176 186 216 213 180 160 163 20 26 60 218 201 141 145 183 133 131 217 213 192 227 239 205 170 183 175 185 198 190 185 186 185 184 192 213 220 185 175 241 232 158 214 252 237 208 233 232 221 232 233 237 258 267 274 289 304 308 294
65 39 307 15 68 181 179 154 155 157 163 167 156 140 170 187 191 187 120 103 232 252 178 205 234 193 174 137 132 156 171 181 212 219 174 142 156 128 95 134 248 197 139 145 186 165 159 221 207 176 221 243 220 176 184 187 189 198 195 189 188 189 193 201 215 221 209 209 241 248 206 226 251 244 200 222 233 225 235 264 283 278 273 277 282 280 272 264
79 81 292 53 72 148 142 143 154 163 166 169 183 181 176 190 193 182 143 157 182 192 184 201 203 173 169 146 121 167 192 155 152 194 175 150 173 182 182 190 169 111 152 161 180 202 191 224 190 145 204 253 229 191 197 195 191 204 207 199 199 199 202 211 219 219 215 226 246 256 258 257 257 239 211 229 232 213 245 258 255 253 254 257 255 251 251 253
94 42 91 114 122 156 155 154 162 168 171 181 191 177 180 202 195 172 175 204 177 170 184 185 165 130 144 168 178 204 199 127 109 148 161 153 173 190 199 190 145 141 175 180 162 159 180 218 62 111 184 253 227 190 193 172 149 238 241 218 208 206 209 216 217 210 200 211 234 246 256 260 254 214 215 233 187 177 228 228 226 239 238 235 239 241 242 245
107 19 41 103 106 184 165 152 168 178 188 193 190 175 181 202 188 157 164 252 200 189 183 167 158 145 159 199 210 200 180 144 129 146 148 132 121 103 93 100 115 139 168 176 167 162 168 180 154 140 190 253 249 169 153 113 84 260 243 221 210 210 216 213 209 220 213 204 215 225 230 249 253 179 201 232 188 202 234 226 215 235 236 232 238 239 241 247